Grayling, MI

7:31 AM EDT on May 23, 2017 (GMT -0400)
Grayling

Weather History for KGOV - January, 2013

Change the Weather History Date:

Thursday, January 24, 2013

  Actual Average (KHTL) Record (KHTL)
Temperature  
Mean Temperature 1 °F -  
Max Temperature 11 °F 27 °F 49 °F (1967)
Min Temperature -8 °F 11 °F -23 °F (1948)
Degree Days  
Heating Degree Days 64    
Moisture  
Dew Point -5 °F    
Average Humidity 76    
Maximum Humidity 88    
Minimum Humidity 50    
Precipitation  
Precipitation 0.00 in - - ()
Sea Level Pressure  
Sea Level Pressure 30.43 in    
Wind  
Wind Speed 4 mph (NNW)    
Max Wind Speed 12 mph    
Max Gust Speed -    
Visibility 10 miles    
Events Snow    
Averages and records for this station are not official NWS values.
T = Trace of Precipitation, MM = Missing Value Source: NWS Daily Summary

Daily Weather History Graph

Daily Weather History Graph

Search for Another Location

Airport or City:

Trip Planner

Search our weather history database for the weather conditions in past years. The results will help you decide how hot, cold, wet, or windy it might be!

Date:

Astronomy

Jan. 24, 2013 Rise Set
Actual Time 8:05 AM EST 5:36 PM EST
Civil Twilight 7:34 AM EST 6:08 PM EST
Nautical Twilight 6:58 AM EST 6:44 PM EST
Astronomical Twilight 6:24 AM EST 7:18 PM EST
Moon 3:36 PM EST (1/24) 6:04 AM EST (1/24)
Length of Visible Light 10h 34m
Length of Day
9h 31m
Waxing Gibbous, 94% of the Moon is Illuminated
Jan 24
Waxing Gibbous
Jan 26
Full
Feb 3
Last Quarter
Feb 10
New
Feb 17
First Quarter

Hourly Weather History & Observations

Time (EST) Temp. Windchill Dew Point Humidity Pressure Visibility Wind Dir Wind Speed Gust Speed Precip Events Conditions
12:12 AM -0.4 °F -12.0 °F -3.6 °F 86% 30.14 in 10.0 mi North 5.8 mph - N/A   Clear
12:32 AM -0.2 °F -11.8 °F -3.5 °F 86% 30.15 in 10.0 mi North 5.8 mph - N/A   Clear
12:52 AM 1.9 °F -9.2 °F -1.1 °F 87% 30.16 in 10.0 mi North 5.8 mph - N/A   Clear
1:12 AM 0.5 °F - -2.9 °F 85% 30.17 in 10.0 mi Calm Calm - N/A   Clear
1:33 AM 0.7 °F -7.1 °F -2.6 °F 86% 30.19 in 10.0 mi NNW 3.5 mph - N/A   Clear
1:53 AM 0.1 °F -11.4 °F -3.3 °F 85% 30.20 in 10.0 mi NNW 5.8 mph - N/A   Clear
2:13 AM 1.4 °F -9.9 °F -1.5 °F 88% 30.23 in 10.0 mi NW 5.8 mph - N/A   Clear
2:33 AM 0.9 °F -10.5 °F -2.6 °F 86% 30.24 in 10.0 mi NW 5.8 mph - N/A   Clear
2:55 AM 0.9 °F -13.1 °F -2.4 °F 86% 30.27 in 10.0 mi NNW 8.1 mph - N/A Snow Light Snow
3:15 AM 1.6 °F -13.3 °F -1.7 °F 86% 30.28 in 10.0 mi North 9.2 mph - N/A   Clear
3:35 AM 1.2 °F -8.5 °F -2.2 °F 86% 30.29 in 10.0 mi NNW 4.6 mph - N/A   Scattered Clouds
3:55 AM 0.5 °F -9.3 °F -2.7 °F 86% 30.31 in 10.0 mi NW 4.6 mph - N/A   Clear
4:15 AM 0.7 °F -10.7 °F -2.6 °F 86% 30.32 in 10.0 mi NW 5.8 mph - N/A   Clear
4:33 AM -0.0 °F -13.0 °F -3.6 °F 85% 30.33 in 10.0 mi North 6.9 mph - N/A   Clear
4:53 AM 0.1 °F -11.4 °F -3.3 °F 85% 30.35 in 10.0 mi NNW 5.8 mph - N/A   Clear
5:13 AM -0.9 °F -14.1 °F -4.5 °F 85% 30.36 in 10.0 mi NNW 6.9 mph - N/A   Clear
5:33 AM -0.4 °F -13.4 °F -3.8 °F 85% 30.38 in 10.0 mi NNW 6.9 mph - N/A   Clear
5:53 AM -1.7 °F -11.8 °F -5.3 °F 85% 30.39 in 10.0 mi NW 4.6 mph - N/A   Clear
6:13 AM -1.8 °F -12.0 °F -5.8 °F 83% 30.39 in 10.0 mi NNW 4.6 mph - N/A   Clear
6:33 AM -4.5 °F - -8.9 °F 82% 30.41 in 10.0 mi Calm Calm - N/A   Clear
6:53 AM -6.3 °F - -10.3 °F 83% 30.43 in 10.0 mi Calm Calm - N/A   Clear
7:14 AM -6.9 °F -15.7 °F -11.4 °F 81% 30.45 in 7.0 mi West 3.5 mph - N/A   Clear
7:34 AM -6.7 °F -17.7 °F -10.7 °F 83% 30.46 in 10.0 mi NW 4.6 mph - N/A   Clear
7:54 AM -4.5 °F -13.0 °F -8.7 °F 82% 30.47 in 10.0 mi NW 3.5 mph - N/A   Clear
8:14 AM -7.1 °F -18.1 °F -12.1 °F 79% 30.47 in 10.0 mi NW 4.6 mph - N/A   Clear
8:34 AM -8.5 °F -17.6 °F -13.4 °F 79% 30.48 in 10.0 mi West 3.5 mph - N/A   Clear
8:54 AM -6.7 °F - -11.2 °F 81% 30.49 in 10.0 mi Calm Calm - N/A   Clear
9:14 AM -6.7 °F - -11.7 °F 79% 30.50 in 10.0 mi Calm Calm - N/A   Clear
9:34 AM -4.2 °F - -8.1 °F 83% 30.51 in 2.5 mi Calm Calm - N/A   Clear
9:54 AM -0.9 °F -11.0 °F -4.9 °F 83% 30.53 in 10.0 mi North 4.6 mph - N/A   Clear
10:14 AM -0.4 °F -13.4 °F -4.4 °F 83% 30.53 in 10.0 mi NNW 6.9 mph - N/A   Clear
10:35 AM 0.5 °F -7.3 °F -3.6 °F 83% 30.54 in 10.0 mi North 3.5 mph - N/A   Clear
10:55 AM 1.8 °F - -2.7 °F 81% 30.55 in 10.0 mi Calm Calm - N/A   Clear
11:15 AM 3.6 °F -3.8 °F -2.7 °F 75% 30.55 in 10.0 mi WNW 3.5 mph - N/A   Clear
11:35 AM 5.9 °F -4.5 °F -2.2 °F 69% 30.54 in 10.0 mi NW 5.8 mph - N/A   Clear
11:55 AM 5.9 °F -9.7 °F -2.4 °F 69% 30.53 in 10.0 mi NNW 11.5 mph - N/A   Clear
12:15 PM 6.1 °F -6.8 °F -3.3 °F 65% 30.53 in 10.0 mi NNW 8.1 mph - N/A   Clear
12:35 PM 8.1 °F -0.5 °F -2.2 °F 63% 30.53 in 10.0 mi North 4.6 mph - N/A   Clear
12:55 PM 8.4 °F -0.1 °F -2.6 °F 61% 30.52 in 10.0 mi North 4.6 mph - N/A   Clear
1:15 PM 9.0 °F -0.9 °F -2.9 °F 59% 30.53 in 10.0 mi NW 5.8 mph - N/A   Clear
1:35 PM 8.4 °F -1.6 °F -3.6 °F 58% 30.51 in 10.0 mi North 5.8 mph - N/A   Clear
1:51 PM 9.1 °F -0.7 °F -3.5 °F 57% 30.51 in 10.0 mi NNW 5.8 mph - N/A   Clear
2:11 PM 9.5 °F -2.6 °F -3.1 °F 57% 30.51 in 10.0 mi West 8.1 mph - N/A   Clear
2:31 PM 9.9 °F 1.6 °F -3.6 °F 54% 30.51 in 10.0 mi WNW 4.6 mph - N/A   Clear
2:51 PM 9.7 °F 3.2 °F -5.3 °F 51% 30.50 in 10.0 mi NW 3.5 mph - N/A   Clear
3:11 PM 9.3 °F 2.8 °F -3.8 °F 55% 30.50 in 10.0 mi NNW 3.5 mph - N/A   Clear
3:32 PM 9.5 °F 3.0 °F -4.4 °F 54% 30.51 in 10.0 mi NNW 3.5 mph - N/A   Clear
3:52 PM 9.9 °F - -4.7 °F 52% 30.50 in 10.0 mi Calm Calm - N/A   Clear
4:12 PM 10.8 °F - -4.5 °F 50% 30.51 in 10.0 mi Calm Calm - N/A   Clear
4:32 PM 10.8 °F 2.7 °F -3.1 °F 54% 30.51 in 10.0 mi West 4.6 mph - N/A   Clear
4:52 PM 8.6 °F 0.1 °F -4.9 °F 54% 30.51 in 10.0 mi NW 4.6 mph - N/A   Clear
5:12 PM 8.4 °F 1.8 °F -3.1 °F 60% 30.51 in 10.0 mi NW 3.5 mph - N/A   Clear
5:32 PM 7.0 °F - -3.3 °F 63% 30.51 in 10.0 mi Calm Calm - N/A   Clear
5:52 PM 2.1 °F - -5.4 °F 71% 30.50 in 10.0 mi Calm Calm - N/A   Clear
6:12 PM -1.1 °F - -7.4 °F 75% 30.49 in 10.0 mi Calm Calm - N/A   Clear
6:33 PM -0.2 °F - -6.0 °F 77% 30.49 in 10.0 mi Calm Calm - N/A   Clear
6:53 PM -1.5 °F - -5.6 °F 83% 30.49 in 10.0 mi Calm Calm - N/A   Clear
7:13 PM -0.9 °F - -4.5 °F 85% 30.49 in 10.0 mi Calm Calm - N/A   Clear
7:33 PM -1.7 °F - -4.9 °F 86% 30.49 in 10.0 mi Calm Calm - N/A   Clear
7:53 PM -1.7 °F - -5.6 °F 83% 30.48 in 10.0 mi Calm Calm - N/A   Clear
8:13 PM -1.7 °F - -5.3 °F 85% 30.47 in 10.0 mi Calm Calm - N/A   Clear
8:33 PM -1.5 °F - -5.4 °F 83% 30.46 in 10.0 mi Calm Calm - N/A   Clear
8:53 PM -0.4 °F - -4.5 °F 83% 30.45 in 10.0 mi Calm Calm - N/A   Clear
9:14 PM 0.1 °F - -5.3 °F 78% 30.44 in 10.0 mi Calm Calm - N/A   Clear
9:34 PM 0.7 °F - -4.7 °F 78% 30.43 in 10.0 mi Calm Calm - N/A   Clear
9:54 PM 0.3 °F - -5.4 °F 77% 30.43 in 10.0 mi Calm Calm - N/A   Clear
10:14 PM 0.9 °F - -4.0 °F 80% 30.43 in 10.0 mi Calm Calm - N/A   Clear
10:34 PM 1.0 °F - -3.3 °F 82% 30.43 in 10.0 mi Calm Calm - N/A   Clear
10:54 PM 1.8 °F - -2.7 °F 81% 30.43 in 10.0 mi Calm Calm - N/A   Clear
11:14 PM 2.1 °F - -2.2 °F 82% 30.41 in 10.0 mi Calm Calm - N/A   Scattered Clouds
11:34 PM 2.3 °F - -1.8 °F 83% 30.40 in 10.0 mi Calm Calm - N/A   Clear
11:55 PM 3.6 °F - -1.3 °F 80% 30.41 in 10.0 mi Calm Calm - N/A   Scattered Clouds